Weather History for KNJK - May, 2013

Change the Weather History Date:

Thursday, May 16, 2013

  Actual Average Record
Temperature  
Mean Temperature 85 °F -  
Max Temperature 102 °F 92 °F 109 °F (2014)
Min Temperature 68 °F 65 °F 48 °F (2015)
Cooling Degree Days 20    
Growing Degree Days 35 (Base 50)    
Moisture  
Dew Point 36 °F    
Average Humidity 22    
Maximum Humidity 65    
Minimum Humidity 4    
Precipitation  
Precipitation 0.00 in - - ()
Sea Level Pressure  
Sea Level Pressure 29.78 in    
Wind  
Wind Speed 14 mph (SW)    
Max Wind Speed 26 mph    
Max Gust Speed 31 mph    
Visibility 10 miles    
Events      
Averages and records for this station are not official NWS values.
T = Trace of Precipitation, MM = Missing Value Source: NWS Daily Summary

Daily Weather History Graph

Daily Weather History Graph

Search for Another Location

Airport or City:

Trip Planner

Search our weather history database for the weather conditions in past years. The results will help you decide how hot, cold, wet, or windy it might be!

Date:

Astronomy

May. 16, 2013 Rise Set
Actual Time 5:42 AM PDT 7:35 PM PDT
Civil Twilight 5:15 AM PDT 8:03 PM PDT
Nautical Twilight 4:42 AM PDT 8:36 PM PDT
Astronomical Twilight 4:07 AM PDT 9:11 PM PDT
Moon 11:14 AM PDT (5/16) 12:03 AM PDT (5/16)
Length of Visible Light 14h 47m
Length of Day
13h 52m
Waxing Crescent, 36% of the Moon is Illuminated
May 16
Waxing Crescent
May 17
First Quarter
May 24
Full
May 31
Last Quarter
Jun 8
New

Hourly Weather History & Observations

Time (PDT) Temp. Heat Index Dew Point Humidity Pressure Visibility Wind Dir Wind Speed Gust Speed Precip Events Conditions
12:56 AM 80.1 °F - 37.0 °F 21% 29.81 in 10.0 mi WSW 15.0 mph 23.0 mph N/A   Clear
1:56 AM 78.1 °F - 37.0 °F 23% 29.80 in 10.0 mi WSW 11.5 mph - N/A   Clear
2:56 AM 78.1 °F - 37.0 °F 23% 29.80 in 10.0 mi WSW 16.1 mph - N/A   Clear
3:56 AM 78.1 °F - 37.0 °F 23% 29.80 in 10.0 mi WSW 13.8 mph - N/A   Clear
4:56 AM 73.9 °F - 37.9 °F 27% 29.81 in 10.0 mi WSW 5.8 mph - N/A   Clear
5:56 AM 68.0 °F - 51.1 °F 55% 29.82 in 10.0 mi SE 6.9 mph - N/A   Clear
6:56 AM 70.0 °F - 57.9 °F 65% 29.83 in 10.0 mi ESE 8.1 mph - N/A   Clear
7:56 AM 73.9 °F - 59.0 °F 59% 29.84 in 10.0 mi ESE 6.9 mph - N/A   Clear
8:56 AM 81.0 °F 81.3 °F 59.0 °F 47% 29.84 in 10.0 mi ESE 5.8 mph - N/A   Clear
9:56 AM 87.1 °F - 50.0 °F 28% 29.83 in 10.0 mi East 4.6 mph - N/A   Clear
10:56 AM 91.0 °F - 44.1 °F 20% 29.82 in 10.0 mi South 3.5 mph - N/A   Clear
11:56 AM 93.9 °F - 46.0 °F 19% 29.81 in 10.0 mi SE 9.2 mph - N/A   Clear
12:56 PM 97.0 °F - 43.0 °F 16% 29.78 in 10.0 mi SSE 9.2 mph - N/A   Clear
1:56 PM 102.9 °F - 14.0 °F 4% 29.75 in 8.0 mi West 19.6 mph 25.3 mph N/A   Clear
2:56 PM 102.0 °F - 15.1 °F 4% 29.73 in 9.0 mi WSW 15.0 mph 25.3 mph N/A   Clear
3:56 PM 102.0 °F - 19.0 °F 5% 29.71 in 9.0 mi WSW 20.7 mph 28.8 mph N/A   Clear
4:56 PM 99.0 °F - 24.1 °F 7% 29.70 in 6.0 mi WSW 26.5 mph - N/A   Haze
5:56 PM 95.0 °F - 24.1 °F 8% 29.70 in 9.0 mi WSW 26.5 mph - N/A   Clear
6:56 PM 90.0 °F - 23.0 °F 9% 29.71 in 10.0 mi West 21.9 mph 27.6 mph N/A   Clear
7:56 PM 86.0 °F - 28.9 °F 13% 29.73 in 10.0 mi West 26.5 mph - N/A   Partly Cloudy
8:56 PM 82.0 °F - 28.0 °F 14% 29.75 in 10.0 mi West 21.9 mph - N/A   Partly Cloudy
9:56 PM 81.0 °F - 28.9 °F 15% 29.77 in 10.0 mi WSW 23.0 mph 31.1 mph N/A   Partly Cloudy
10:56 PM 80.1 °F - 30.0 °F 16% 29.78 in 10.0 mi WSW 23.0 mph - N/A   Partly Cloudy
11:56 PM 80.1 °F - 32.0 °F 17% 29.78 in 10.0 mi West 21.9 mph 27.6 mph N/A   Clear